Mattoon, IL

9:54 AM CDT on August 25, 2019 (GMT -0500)
Coles County Memorial

Weather History for KMTO - July, 2019

Change the Weather History Date:

Monday, July 22, 2019

  Actual Average Record
Temperature  
Mean Temperature 68 °F 76 °F  
Max Temperature 79 °F 86 °F 100 °F (1983)
Min Temperature 57 °F 66 °F 53 °F (1970)
Degree Days  
Heating Degree Days 0 0  
Month to date heating degree days 0 0  
Since 1 June heating degree days 4 17  
Since 1 July heating degree days 0 0  
Cooling Degree Days 3 11  
Month to date cooling degree days 305 240  
Year to date cooling degree days 646 551  
Since 1 June cooling degree days 521 463  
Growing Degree Days 20 (Base 50)    
Moisture  
Dew Point 63 °F    
Average Humidity 77    
Maximum Humidity 97    
Minimum Humidity 56    
Precipitation  
Precipitation 0.06 in 0.16 in 1.83 in (1948)
Month to date precipitation 2.48 3.22  
Year to date precipitation 20.68 21.81  
Sea Level Pressure  
Sea Level Pressure 29.98 in    
Wind  
Wind Speed 10 mph (North)    
Max Wind Speed 20 mph    
Max Gust Speed 26 mph    
Visibility 10 miles    
Events Rain    
T = Trace of Precipitation, MM = Missing Value Source: NWS Daily Summary

Daily Weather History Graph

Daily Weather History Graph

Search for Another Location

Airport or City:

Astronomy

Jul. 22, 2019 Rise Set
Actual Time 5:43 AM CDT 8:14 PM CDT
Civil Twilight 5:12 AM CDT 8:45 PM CDT
Nautical Twilight 4:34 AM CDT 9:24 PM CDT
Astronomical Twilight 3:51 AM CDT 10:06 PM CDT
Moon 11:37 PM CDT (7/22) 10:59 AM CDT (7/22)
Length of Visible Light 15h 32m
Length of Day
14h 31m
Waning Gibbous, 72% of the Moon is Illuminated
Jul 22
Waning Gibbous
Jul 24
Last Quarter
Jul 31
New
Aug 7
First Quarter
Aug 15
Full

Hourly Weather History & Observations

Time (CDT) Temp. Dew Point Humidity Pressure Visibility Wind Dir Wind Speed Gust Speed Precip Events Conditions
12:15 AM 73.0 °F 70.0 °F 90% 29.95 in 10.0 mi North 5.8 mph - N/A   Mostly Cloudy
12:26 AM 73.0 °F 70.0 °F 90% 29.95 in 10.0 mi NNE 5.8 mph - N/A   Overcast
12:32 AM 73.0 °F 69.1 °F 87% 29.95 in 10.0 mi North 6.9 mph - N/A   Overcast
12:53 AM 72.0 °F 68.0 °F 87% 29.92 in 10.0 mi NNE 9.2 mph - N/A   Scattered Clouds
1:53 AM 70.0 °F 68.0 °F 93% 29.90 in 10.0 mi North 5.8 mph - N/A   Mostly Cloudy
2:04 AM 70.0 °F 68.0 °F 93% 29.92 in 10.0 mi NNW 4.6 mph - N/A   Scattered Clouds
2:39 AM 70.0 °F 68.0 °F 93% 29.92 in 9.0 mi NNW 5.8 mph - N/A   Mostly Cloudy
2:53 AM 70.0 °F 68.0 °F 93% 29.91 in 10.0 mi NNW 5.8 mph - N/A   Overcast
3:23 AM 71.1 °F 68.0 °F 90% 29.93 in 10.0 mi North 9.2 mph - N/A   Overcast
3:53 AM 71.1 °F 66.0 °F 84% 29.90 in 10.0 mi North 8.1 mph - N/A   Overcast
4:53 AM 71.1 °F 64.9 °F 81% 29.91 in 10.0 mi North 6.9 mph - N/A   Overcast
5:53 AM 70.0 °F 63.0 °F 78% 29.93 in 10.0 mi North 8.1 mph - N/A   Overcast
6:44 AM 70.0 °F 63.0 °F 78% 29.96 in 10.0 mi North 8.1 mph - N/A   Overcast
6:53 AM 70.0 °F 62.1 °F 76% 29.95 in 10.0 mi North 10.4 mph - N/A   Overcast
7:53 AM 68.0 °F 63.0 °F 84% 29.98 in 10.0 mi North 6.9 mph - 0.00 in Rain Light Rain
8:53 AM 66.9 °F 64.0 °F 90% 30.00 in 10.0 mi NNW 8.1 mph - 0.02 in Rain Light Rain
9:53 AM 68.0 °F 64.0 °F 87% 30.00 in 10.0 mi NE 4.6 mph - 0.03 in Rain Light Rain
10:53 AM 70.0 °F 64.9 °F 84% 29.96 in 10.0 mi North 16.1 mph - 0.01 in   Overcast
11:53 AM 71.1 °F 64.9 °F 81% 29.98 in 10.0 mi North 13.8 mph - N/A   Overcast
12:53 PM 72.0 °F 64.0 °F 76% 29.99 in 10.0 mi NNE 11.5 mph - N/A   Overcast
1:53 PM 75.0 °F 64.9 °F 71% 30.00 in 10.0 mi NNE 13.8 mph - N/A   Clear
2:26 PM 77.0 °F 64.9 °F 66% 30.01 in 10.0 mi North 15.0 mph - N/A   Mostly Cloudy
2:38 PM 78.1 °F 64.9 °F 64% 30.01 in 10.0 mi North 15.0 mph 21.9 mph N/A   Mostly Cloudy
2:53 PM 78.1 °F 64.0 °F 62% 30.00 in 10.0 mi NNE 13.8 mph - N/A   Scattered Clouds
3:53 PM 75.9 °F 62.1 °F 62% 30.01 in 10.0 mi NNE 17.3 mph - N/A   Partly Cloudy
4:53 PM 77.0 °F 61.0 °F 58% 30.00 in 10.0 mi NNE 13.8 mph - N/A   Partly Cloudy
5:53 PM 75.0 °F 60.1 °F 60% 30.00 in 10.0 mi NNE 12.7 mph - N/A   Partly Cloudy
6:53 PM 75.0 °F 59.0 °F 57% 30.01 in 10.0 mi NNE 13.8 mph - N/A   Partly Cloudy
7:53 PM 71.1 °F 57.0 °F 61% 30.04 in 10.0 mi NE 12.7 mph - N/A   Scattered Clouds
8:53 PM 66.0 °F 53.1 °F 63% 30.05 in 10.0 mi NE 6.9 mph - N/A   Clear
9:53 PM 63.0 °F 53.1 °F 70% 30.07 in 10.0 mi NNE 4.6 mph - 0.00 in Rain Light Rain
10:53 PM 61.0 °F 52.0 °F 72% 30.08 in 10.0 mi North 3.5 mph - 0.00 in   Clear
11:53 PM 57.0 °F 53.1 °F 87% 30.09 in 10.0 mi NW 5.8 mph - N/A   Clear